Location: Unspecified
(0.0000°N, 0.0000°E)
Time: 13:22:12
(UTC+00:00)

Hubble Space Telescope - Pass Details

Date: 12 May 2026
Orbit: 473 x 476 km, 28.5° (Epoch: 18 May)

Event Time Altitude Azimuth Distance (km) Brightness Sun altitude
Exits shadow 05:02:50 - 201° (SSW) 1,706 3.0 -12.7°
Reaches altitude 10° 05:03:05 10° 198° (SSW) 1,630 2.9 -12.7°
Maximum altitude 05:05:49 19° 151° (SSE) 1,177 2.6 -12.0°
Drops below altitude 10° 05:08:33 10° 104° (ESE) 1,626 4.2 -11.4°
Sets 05:11:11 0° 86° (E) 2,501 5.9 -10.7°
